FW0810 Weather Reports


Display with metric or nautical units.
time (UTC)temp
F
wind
direction
speed
MPH
gust
MPH
rain 1hr
in
rain 24hr
in
rain mn
in
humidity
%
barometer
mb
20260507111242 71 248 2.0 9.0 0.00 0.10 0.10 56 1016.8
20260507110742 71 249 2.0 9.0 0.00 0.10 0.10 56 1016.8
20260507110241 71 278 1.0 7.0 0.00 0.10 0.10 55 1016.8
20260507105742 71 297 1.0 5.0 0.00 0.10 0.10 56 1016.8
20260507105241 71 255 0.0 5.0 0.00 0.10 0.10 57 1016.9
20260507104742 70 191 1.0 6.0 0.00 0.10 0.10 58 1016.9
20260507104240 70 165 1.0 6.0 0.00 0.10 0.10 61 1016.9
20260507103737 70 289 1.0 6.0 0.00 0.10 0.10 60 1016.9
20260507103236 69 109 0.0 4.0 0.00 0.10 0.10 63 1017.0
20260507102733 70 124 0.0 3.0 0.00 0.10 0.10 65 1017.0
20260507102233 69 139 1.0 3.0 0.00 0.10 0.10 65 1017.0
20260507101736 70 97 1.0 3.0 0.00 0.10 0.10 63 1017.1
20260507100723 70 186 0.0 3.0 0.00 0.10 0.10 66 1017.2
20260507100223 70 167 0.0 3.0 0.00 0.10 0.10 65 1017.2
20260507095223 70 146 2.0 7.0 0.00 0.10 0.10 66 1017.1
20260507094722 70 278 0.0 5.0 0.00 0.10 0.10 66 1017.0
20260507094223 69 137 0.0 6.0 0.00 0.10 0.10 64 1017.2
20260507093722 69 138 0.0 6.0 0.00 0.10 0.10 67 1017.2
20260507092719 68 189 1.0 6.0 0.00 0.10 0.10 67 1017.2
20260507092218 67 278 2.0 6.0 0.00 0.10 0.10 67 1017.3
20260507091716 67 278 2.0 6.0 0.00 0.10 0.10 67 1017.3
20260507091215 68 290 2.0 7.0 0.00 0.10 0.10 70 1017.3
20260507090716 68 275 1.0 7.0 0.00 0.10 0.10 69 1017.4
20260507090215 67 276 1.0 5.0 0.00 0.10 0.10 70 1017.4
20260507085716 68 281 1.0 5.0 0.00 0.10 0.10 72 1017.4
20260507085214 67 308 0.0 3.0 0.00 0.10 0.10 72 1017.5
20260507084711 67 231 1.0 6.0 0.00 0.10 0.10 73 1017.4
20260507084213 66 278 1.0 6.0 0.00 0.10 0.10 73 1017.4
20260507083709 66 274 0.0 5.0 0.00 0.10 0.10 74 1017.4
20260507083204 65 302 2.0 7.0 0.00 0.10 0.10 75 1017.3
20260507082657 65 319 2.0 7.0 0.00 0.10 0.10 76 1017.3
20260507082151 65 276 1.0 6.0 0.00 0.10 0.10 77 1017.4
20260507081645 64 274 2.0 5.0 0.00 0.10 0.10 77 1017.4
20260507081141 64 283 3.0 9.0 0.00 0.10 0.10 76 1017.5
20260507080634 65 263 2.0 9.0 0.00 0.10 0.10 76 1017.5
20260507080127 65 290 1.0 5.0 0.00 0.10 0.10 78 1017.5
20260507075621 65 181 0.0 3.0 0.00 0.10 0.10 80 1017.6
20260507075115 64 264 0.0 3.0 0.00 0.10 0.10 80 1017.5
20260507074610 64 264 1.0 4.0 0.00 0.10 0.10 81 1017.4
20260507073603 63 160 0.0 4.0 0.00 0.10 0.10 82 1017.5
20260507073055 63 161 0.0 1.0 0.00 0.10 0.10 82 1017.5
20260507072551 63 295 0.0 1.0 0.00 0.10 0.10 82 1017.4
20260507072049 63 295 0.0 1.0 0.00 0.10 0.10 82 1017.4
20260507071045 64 340 0.0 1.0 0.00 0.10 0.10 82 1017.4
20260507070543 64 1 0.0 1.0 0.00 0.10 0.10 83 1017.4
20260507070043 63 1 0.0 2.0 0.00 0.10 0.10 83 1017.4
20260507065039 63 1 0.0 0.0 0.00 0.10 0.10 85 1017.3
20260507064541 62 1 0.0 0.0 0.00 0.10 0.10 85 1017.3
20260507064036 62 1 0.0 0.0 0.00 0.10 0.10 85 1017.2
20260507063533 62 1 0.0 0.0 0.00 0.10 0.10 85 1017.2
20260507062529 62 1 0.0 2.0 0.00 0.10 0.10 85 1017.2
20260507062027 62 1 0.0 2.0 0.00 0.10 0.10 85 1017.2
20260507061525 62 115 0.0 0.0 0.00 0.10 0.10 86 1017.2
20260507061026 62 116 0.0 0.0 0.00 0.10 0.10 86 1017.2
20260507060524 62 116 0.0 0.0 0.00 0.10 0.10 86 1017.3
20260507060025 62 119 0.0 1.0 0.00 0.10 0.10 87 1017.3
20260507055525 61 120 0.0 2.0 0.00 0.10 0.10 88 1017.2
20260507054525 60 160 0.0 0.0 0.00 0.10 0.10 90 1017.2
20260507054031 60 161 0.0 0.0 0.00 0.10 0.10 90 1017.2
20260507053523 60 161 0.0 0.0 0.00 0.10 0.10 92 1017.0
20260507053023 59 161 0.0 0.0 0.00 0.10 0.10 92 1017.0
20260507052521 59 161 0.0 0.0 0.00 0.10 0.10 92 1016.9
20260507052018 58 180 0.0 0.0 0.00 0.10 0.10 92 1016.9
20260507051519 58 180 0.0 0.0 0.00 0.10 0.10 92 1016.9
20260507051015 58 181 0.0 0.0 0.00 0.10 0.10 92 1017.0
20260507050513 58 181 0.0 0.0 0.00 0.10 0.10 92 1017.0
20260507050013 58 181 0.0 0.0 0.00 0.10 0.10 92 1017.1
20260507045511 58 181 0.0 0.0 0.00 0.10 0.10 91 1016.9
20260507045008 58 181 0.0 0.0 0.00 0.10 0.10 92 1016.8
20260507044511 58 181 0.0 0.0 0.00 0.10 0.10 92 1016.8
20260507044008 58 181 0.0 0.0 0.00 0.10 0.10 91 1016.7
20260507043505 58 181 0.0 0.0 0.00 0.10 0.10 91 1016.8
20260507043006 58 181 0.0 0.0 0.00 0.10 0.10 91 1016.6
20260507042505 58 245 0.0 0.0 0.00 0.10 0.10 91 1016.6
20260507042005 58 245 0.0 0.0 0.00 0.10 0.10 91 1016.6
20260507041005 58 245 0.0 0.0 0.00 0.10 0.10 91 1016.5
20260507040504 58 245 0.0 0.0 0.00 0.10 0.10 91 1016.4
20260507040004 58 245 0.0 0.0 0.00 0.10 0.10 91 1016.3
20260507035504 58 245 0.0 0.0 0.00 0.10 0.10 91 1016.4
20260507035002 58 245 0.0 0.0 0.00 0.10 0.10 91 1016.4
20260507034000 58 245 0.0 0.0 0.00 0.10 0.10 91 1016.3
20260507033501 58 245 0.0 0.0 0.00 0.10 0.10 91 1016.3
20260507033000 58 245 0.0 0.0 0.00 0.10 0.10 91 1016.2
20260507032500 58 245 0.0 0.0 0.00 0.10 0.10 90 1016.2
20260507032000 58 245 0.0 0.0 0.00 0.10 0.10 90 1016.2
20260507031000 58 245 0.0 0.0 0.00 0.10 0.10 90 1016.3
20260507030455 58 246 0.0 0.0 0.00 0.10 0.10 90 1016.3
20260507025956 58 246 0.0 0.0 0.00 0.10 0.10 90 1016.1
20260507024457 58 246 0.0 0.0 0.00 0.10 0.10 90 1016.3
20260507023005 58 140 0.0 1.0 0.00 0.10 0.10 90 1016.3
20260507022451 58 134 0.0 0.0 0.00 0.10 0.10 90 1016.3
20260507021951 58 133 0.0 0.0 0.00 0.11 0.10 90 1016.3
20260507021450 59 133 0.0 0.0 0.00 0.11 0.10 90 1016.2
20260507020950 59 134 0.0 0.0 0.01 0.11 0.10 89 1016.1
20260507020449 59 138 0.0 0.0 0.02 0.11 0.10 89 1016.2
20260507015955 59 138 0.0 0.0 0.02 0.11 0.10 89 1016.2
20260507015444 59 138 0.0 2.0 0.03 0.11 0.10 89 1016.2
20260507014936 59 138 0.0 3.0 0.03 0.11 0.10 89 1016.1
20260507014431 59 171 0.0 4.0 0.03 0.11 0.10 89 1016.2
20260507013925 59 182 0.0 4.0 0.03 0.11 0.10 89 1016.1
20260507013425 59 200 0.0 2.0 0.04 0.11 0.10 89 1016.2
20260507012926 59 200 0.0 2.0 0.06 0.11 0.10 88 1016.2
20260507011931 59 169 0.0 3.0 0.07 0.11 0.10 88 1016.2
20260507011424 59 226 0.0 3.0 0.07 0.10 0.10 88 1016.2
20260507010929 59 274 0.0 5.0 0.07 0.10 0.09 88 1016.2
20260507010426 60 282 1.0 5.0 0.07 0.09 0.09 88 1016.2
20260507005925 60 243 1.0 6.0 0.06 0.09 0.08 88 1016.2
20260507004924 61 115 0.0 0.0 0.06 0.08 0.07 90 1016.1
20260507004422 61 115 0.0 0.0 0.06 0.08 0.07 89 1016.1
20260507003924 61 115 0.0 0.0 0.06 0.08 0.07 89 1016.1
20260507003420 61 115 0.0 0.0 0.06 0.07 0.06 89 1016.1
20260507002420 61 115 0.0 0.0 0.03 0.05 0.04 88 1016.1
20260507001919 61 115 0.0 0.0 0.03 0.04 0.03 88 1016.1
20260507001429 61 115 0.0 2.0 0.02 0.03 0.02 88 1016.2
20260507000412 62 176 0.0 0.0 0.02 0.02 0.02 88 1016.2
20260506235905 62 160 0.0 0.0 0.02 0.02 0.02 88 1016.1
20260506235358 62 160 0.0 0.0 0.02 0.02 0.02 88 1016.1
20260506234347 62 187 0.0 0.0 0.01 0.02 0.01 87 1016.0
20260506233842 62 186 0.0 0.0 0.01 0.02 0.01 87 1016.1
20260506232830 62 217 0.0 0.0 0.01 0.02 0.01 86 1016.0
20260506232322 62 108 0.0 2.0 0.00 0.01 0.00 86 1016.0
20260506231818 62 108 0.0 2.0 0.00 0.01 0.00 86 1016.0
20260506231310 62 105 0.0 0.0 0.00 0.01 0.00 86 1016.0
20260506230806 62 105 0.0 0.0 0.00 0.01 0.00 86 1016.1
20260506225752 62 106 0.0 2.0 0.00 0.01 0.00 85 1016.2
20260506225246 62 106 0.0 2.0 0.00 0.01 0.00 85 1016.3
20260506224742 62 113 0.0 0.0 0.00 0.01 0.00 84 1016.2
20260506224244 63 113 0.0 0.0 0.00 0.01 0.00 84 1016.4
20260506223742 62 113 0.0 0.0 0.00 0.01 0.00 84 1016.4
20260506223241 62 113 0.0 2.0 0.00 0.01 0.00 84 1016.5
20260506222740 62 113 0.0 2.0 0.00 0.01 0.00 84 1016.5
20260506222239 63 122 0.0 0.0 0.00 0.01 0.00 83 1016.4
20260506221736 62 122 0.0 2.0 0.00 0.01 0.00 83 1016.4
20260506221234 62 122 0.0 3.0 0.00 0.01 0.00 83 1016.4
20260506220732 62 105 0.0 3.0 0.00 0.01 0.00 83 1016.4
20260506220232 63 101 0.0 2.0 0.00 0.01 0.00 83 1016.3
20260506215733 63 89 0.0 0.0 0.00 0.01 0.01 83 1016.3
20260506215230 63 89 0.0 0.0 0.00 0.01 0.01 83 1016.2
20260506214730 63 89 0.0 2.0 0.00 0.01 0.01 83 1016.4
20260506213729 63 94 0.0 2.0 0.00 0.01 0.01 83 1016.2
20260506213228 63 94 0.0 2.0 0.00 0.01 0.01 83 1016.2
20260506212725 63 92 0.0 2.0 0.00 0.01 0.01 82 1016.3
20260506211723 63 124 0.0 0.0 0.00 0.01 0.01 82 1016.3
20260506211219 63 126 1.0 6.0 0.00 0.01 0.01 82 1016.4
20260506210217 63 71 0.0 0.0 0.00 0.01 0.01 82 1016.3
20260506205714 63 46 0.0 2.0 0.00 0.01 0.01 82 1016.3
20260506205214 63 314 0.0 2.0 0.00 0.01 0.01 82 1016.3
20260506204714 63 96 0.0 0.0 0.00 0.01 0.01 82 1016.3
20260506204211 63 96 0.0 2.0 0.00 0.01 0.01 82 1016.3
20260506203709 63 89 0.0 2.0 0.00 0.01 0.01 82 1016.2
20260506203209 63 145 0.0 0.0 0.00 0.01 0.01 82 1016.2
20260506201706 64 152 0.0 0.0 0.00 0.01 0.01 81 1016.2
20260506201204 64 152 0.0 2.0 0.00 0.01 0.01 81 1016.2
20260506200158 64 150 0.0 0.0 0.00 0.01 0.01 80 1016.2
20260506195701 64 144 0.0 0.0 0.00 0.01 0.01 80 1016.1
20260506195155 64 144 0.0 3.0 0.00 0.01 0.01 80 1016.0
20260506194644 64 139 1.0 4.0 0.00 0.01 0.01 80 1016.0
20260506194140 64 138 1.0 4.0 0.00 0.01 0.01 80 1015.8
20260506193633 64 169 0.0 3.0 0.00 0.01 0.01 80 1015.7
20260506193126 64 160 0.0 3.0 0.00 0.01 0.01 79 1015.6
20260506192620 64 163 1.0 6.0 0.00 0.01 0.01 79 1015.6
20260506192115 64 160 1.0 6.0 0.00 0.01 0.01 79 1015.6
20260506191609 64 199 1.0 5.0 0.00 0.01 0.01 79 1015.6
20260506191118 64 139 1.0 6.0 0.00 0.01 0.01 78 1015.6
20260506190104 64 140 0.0 3.0 0.00 0.01 0.01 77 1015.4
20260506185545 64 140 1.0 4.0 0.00 0.01 0.01 77 1015.3
20260506185040 64 155 2.0 9.0 0.00 0.01 0.01 77 1015.2
20260506184027 64 158 1.0 6.0 0.00 0.01 0.01 77 1014.9
20260506183520 64 155 1.0 5.0 0.00 0.01 0.01 77 1014.9
20260506183015 64 188 1.0 7.0 0.00 0.01 0.01 76 1015.0
20260506182508 64 304 0.0 7.0 0.00 0.01 0.01 76 1015.1
20260506182003 65 179 0.0 4.0 0.00 0.01 0.01 75 1015.1
20260506181501 65 293 0.0 3.0 0.00 0.01 0.01 75 1015.2
20260506181002 65 107 0.0 3.0 0.00 0.01 0.01 75 1015.1
20260506180500 65 147 0.0 4.0 0.00 0.01 0.01 75 1015.1
20260506175458 65 198 1.0 5.0 0.00 0.01 0.01 75 1015.2
20260506174958 65 281 1.0 5.0 0.00 0.01 0.01 74 1015.1
20260506174457 65 195 1.0 7.0 0.00 0.01 0.01 74 1015.1
20260506173956 65 146 1.0 7.0 0.00 0.01 0.01 74 1015.0
20260506173456 65 193 2.0 10.0 0.00 0.01 0.01 74 1015.1
20260506172954 65 290 1.0 10.0 0.00 0.01 0.01 74 1015.1
20260506172454 65 162 1.0 8.0 0.00 0.01 0.01 74 1014.9
20260506171454 65 287 1.0 6.0 0.00 0.01 0.01 74 1014.9
20260506170950 65 156 1.0 6.0 0.00 0.01 0.01 74 1014.9
20260506165951 66 238 1.0 8.0 0.00 0.01 0.01 74 1014.9
20260506165453 66 164 1.0 4.0 0.00 0.01 0.01 74 1014.9
20260506164951 66 202 2.0 7.0 0.00 0.01 0.01 75 1014.9
20260506164448 66 275 1.0 7.0 0.00 0.01 0.01 75 1014.8
20260506163939 66 274 1.0 6.0 0.00 0.01 0.01 75 1014.8
20260506163433 67 172 1.0 6.0 0.00 0.01 0.01 76 1014.8
20260506162926 67 231 1.0 6.0 0.00 0.01 0.01 75 1014.9
20260506162434 67 184 1.0 5.0 0.00 0.01 0.01 76 1015.0
20260506161914 67 143 0.0 5.0 0.00 0.01 0.01 75 1015.0
20260506161411 67 164 0.0 5.0 0.00 0.01 0.01 75 1014.9
20260506160917 67 221 1.0 5.0 0.00 0.01 0.01 75 1014.9
20260506160358 67 186 1.0 5.0 0.00 0.01 0.01 75 1015.0
20260506155850 67 332 2.0 11.0 0.00 0.01 0.01 74 1015.1
20260506155345 67 295 2.0 11.0 0.00 0.01 0.01 74 1014.9
20260506154839 67 279 1.0 9.0 0.00 0.01 0.01 74 1015.1
20260506154332 67 273 2.0 9.0 0.00 0.01 0.01 74 1014.9
20260506153320 67 199 2.0 11.0 0.00 0.01 0.01 73 1014.9
20260506152308 67 254 2.0 6.0 0.00 0.01 0.01 74 1014.9
20260506151807 67 188 2.0 11.0 0.00 0.01 0.01 74 1014.9
20260506151306 67 207 2.0 11.0 0.00 0.01 0.01 75 1014.9
20260506150806 67 139 2.0 11.0 0.00 0.01 0.01 75 1015.0
20260506150306 67 295 2.0 17.0 0.00 0.01 0.01 75 1014.9
20260506145805 67 191 2.0 17.0 0.00 0.01 0.01 75 1014.9
20260506144805 67 269 2.0 10.0 0.00 0.02 0.01 78 1015.0
20260506144304 66 245 3.0 10.0 0.00 0.02 0.01 78 1015.0
20260506143804 67 340 2.0 9.0 0.00 0.02 0.01 78 1015.0
20260506143305 67 287 0.0 6.0 0.00 0.02 0.01 77 1014.9
20260506142806 67 272 0.0 7.0 0.00 0.02 0.01 77 1015.0
20260506142305 67 168 0.0 7.0 0.00 0.02 0.01 75 1014.9
20260506141802 67 163 0.0 4.0 0.00 0.02 0.01 75 1014.9
20260506141300 68 161 1.0 11.0 0.00 0.02 0.01 74 1014.9
20260506140800 68 275 2.0 11.0 0.00 0.02 0.01 72 1014.8
20260506140300 68 132 1.0 8.0 0.00 0.02 0.01 71 1014.8
20260506135754 68 178 1.0 6.0 0.00 0.02 0.01 71 1014.9
20260506135254 68 252 2.0 10.0 0.00 0.02 0.01 70 1014.7
20260506134755 68 166 3.0 10.0 0.00 0.02 0.01 70 1014.8
20260506133753 68 186 1.0 6.0 0.00 0.02 0.01 68 1015.0
20260506133252 68 148 0.0 4.0 0.00 0.02 0.01 67 1015.2
20260506132752 68 245 0.0 4.0 0.00 0.02 0.01 67 1015.2
20260506132252 68 201 0.0 5.0 0.00 0.02 0.01 66 1015.2
20260506131752 68 268 0.0 5.0 0.00 0.02 0.01 65 1015.2
20260506131253 68 174 1.0 5.0 0.00 0.02 0.01 65 1015.4
20260506125745 69 156 1.0 6.0 0.00 0.02 0.01 63 1015.5
20260506124746 69 150 2.0 10.0 0.00 0.02 0.01 62 1015.6
20260506124246 69 101 2.0 10.0 0.00 0.02 0.01 62 1015.6
20260506123747 70 173 2.0 8.0 0.00 0.02 0.01 61 1015.6
20260506123247 70 199 2.0 8.0 0.00 0.02 0.01 61 1015.5
20260506122746 71 169 1.0 6.0 0.00 0.02 0.01 60 1015.5
20260506121246 71 142 2.0 10.0 0.00 0.02 0.01 60 1015.2
20260506120247 71 156 3.0 14.0 0.00 0.02 0.01 58 1015.2
20260506115745 71 143 3.0 14.0 0.00 0.02 0.01 58 1015.1
20260506114244 71 156 2.0 12.0 0.00 0.02 0.01 59 1015.1
20260506113745 71 158 3.0 12.0 0.00 0.02 0.01 59 1015.1
20260506112239 71 340 2.0 13.0 0.00 0.02 0.01 58 1015.1
20260506111742 71 45 2.0 8.0 0.00 0.02 0.01 60 1015.1